Regional Weather Roundup
Issued by NWS

Home | Current Version | Previous Version | Text Only | Print | Product List | Glossary On
Versions: 1 2 3 4 5 6 7 8 9 10 11 12 13 14 15 16 17 18 19 20 21 22 23 24 25 26 27 28 29 30 31 32 33 34 35 36 37 38 39 40 41 42 43 44 45 46 47 48 49 50
941
ASUS44 KJAN 170103
RWRMS

MISSISSIPPI HOURLY WEATHER ROUNDUP
NATIONAL WEATHER SERVICE JACKSON MS
700 PM CST TUE DEC 16 2014

NOTE: "FAIR: INDICATES FEW OR NO CLOUDS BELOW 12,000 FEET WITH NO
SIGNIFICANT WEATHER AND/OR OBSTRUCTIONS TO VISIBILITY.

MSZ001>002-007>008-010>013-018>021-025>028-034>036-170200-
NORTHWEST MISSISSIPPI

CITY           SKY/WX    TMP DP  RH WIND       PRES   REMARKS
CLARKSDALE     FAIR      43  37  81 CALM      30.27R
CLEVELAND      FAIR      44  39  83 NW7       30.26S
GREENWOOD      CLEAR     42  37  82 CALM      30.25R
GREENVILLE     CLEAR     45  36  70 NW6       30.26R
GRENADA        FAIR      37  34  87 CALM      30.26R
OLIVE BRANCH   MOCLDY    43  37  81 NW7       30.26R
OXFORD         CLOUDY    45  36  70 NW6       30.26R
TUNICA         CLEAR     41  36  81 N9        30.28R
$$

MSZ003>006-009-014>017-022>024-029>033-037>039-170200-
NORTHEAST MISSISSIPPI

CITY           SKY/WX    TMP DP  RH WIND       PRES   REMARKS
COLUMBUS AFB   CLEAR     44  35  70 NW6       30.23R
CORINTH        CLOUDY    46  36  66 NW6G12    30.24R
STARKVILLE     FAIR      41  36  81 CALM      30.24R
TUPELO         CLOUDY    46  35  65 N7        30.24R
$$

MSZ040-058-170200-
CENTRAL MISSISSIPPI

CITY           SKY/WX    TMP DP  RH WIND       PRES   REMARKS
JACKSON INTL   PTCLDY    42  35  76 CALM      30.25R
JACKSON HAWKNS CLEAR     46  35  65 CALM      30.25R
MERIDIAN KEY   CLEAR     42  36  79 NW5       30.24R
MERIDIAN NAS   CLEAR     43  37  79 NW5       30.23R
RAYMOND        FAIR      41  37  87 CALM      30.26R
VICKSBURG      PTCLDY    39  33  79 CALM      30.27R
$$

MSZ059>079-170200-
SOUTH MISSISSIPPI

CITY           SKY/WX    TMP DP  RH WIND       PRES   REMARKS
HATTIESBURG    PTCLDY    48  38  68 CALM      30.24R
MCCOMB         PTCLDY    48  36  63 N3        30.24R
NATCHEZ        PTCLDY    45  36  70 CALM      30.26R
PINE BELT      CLEAR     46  34  61 NW6       30.24R
$$

MSZ080>082-170200-
COASTAL MISSISSIPPI

CITY           SKY/WX    TMP DP  RH WIND       PRES   REMARKS
BAY ST LOUIS   CLEAR     45  37  76 CALM      30.22R
BILOXI         CLEAR     56  42  60 N6        30.21R
PASCAGOULA     PTCLDY    46  38  73 NW5       30.20R
GULFPORT       PTCLDY    50  40  68 NW3       30.21R
$$



USA.gov is the U.S. government's official web portal to all federal, state and local government web resources and services.